• En España
  • Lista de países
  • Para 7 días
  • Temperatura del agua
  • Mapa Satelital
  • El tiempo en el mapa
  • Informadores
  • user-avatar
    Iniciar sesión

    Tiempo cada hora Mylniki

    Hoy, 21 Octubre, Domingo

    Tiempo Temperatura Precipitaciones Viento Presión Humedad
    00:00 +2°C° 0 mm 3 mps 748 mmHg 88%
    01:00 +1°C° 0 mm 3 mps 749 mmHg 89%
    02:00 +1°C° 0 mm 3 mps 749 mmHg 89%
    03:00 0°C° 0 mm 3 mps 750 mmHg 89%
    04:00 0°C° 0 mm 3 mps 750 mmHg 90%
    05:00 0°C° 0 mm 3 mps 751 mmHg 89%
    06:00 -1°C° 0 mm 3 mps 751 mmHg 88%
    07:00 -1°C° 0 mm 3 mps 752 mmHg 87%
    08:00 0°C° 0 mm 3 mps 752 mmHg 82%
    09:00 -1°C° 0 mm 4 mps 753 mmHg 77%
    10:00 0°C° 0 mm 4 mps 753 mmHg 71%
    11:00 +1°C° 0 mm 4 mps 754 mmHg 69%
    12:00 +1°C° 0 mm 4 mps 754 mmHg 67%
    13:00 +3°C° 0 mm 4 mps 754 mmHg 65%
    14:00 +3°C° 0 mm 3 mps 755 mmHg 67%
    15:00 +3°C° 0 mm 3 mps 755 mmHg 69%
    16:00 +3°C° 0 mm 2 mps 755 mmHg 72%
    17:00 +3°C° 0 mm 2 mps 756 mmHg 75%
    18:00 +2°C° 0 mm 2 mps 756 mmHg 79%
    19:00 +2°C° 0 mm 2 mps 756 mmHg 83%
    20:00 +1°C° 0 mm 2 mps 756 mmHg 86%
    21:00 +1°C° 0 mm 2 mps 756 mmHg 88%
    22:00 -1°C° 0 mm 2 mps 756 mmHg 91%
    23:00 -1°C° 0 mm 2 mps 757 mmHg 92%

    Mañana, 22 Octubre, Lunes

    Tiempo Temperatura Precipitaciones Viento Presión Humedad
    00:00 -1°C° 0 mm 2 mps 757 mmHg 93%
    01:00 -1°C° 0 mm 2 mps 757 mmHg 94%
    02:00 -1°C° 0 mm 2 mps 757 mmHg 95%
    03:00 -1°C° 0 mm 2 mps 757 mmHg 95%
    04:00 0°C° 0 mm 1 mps 757 mmHg 95%
    05:00 -2°C° 0 mm 2 mps 757 mmHg 95%
    06:00 -2°C° 0 mm 2 mps 757 mmHg 95%
    07:00 -2°C° 0 mm 2 mps 757 mmHg 95%
    08:00 -1°C° 0 mm 2 mps 757 mmHg 89%
    09:00 +1°C° 0 mm 2 mps 757 mmHg 84%
    10:00 +1°C° 0 mm 3 mps 757 mmHg 79%
    11:00 +2°C° 0 mm 3 mps 757 mmHg 75%
    12:00 +1°C° 0 mm 4 mps 756 mmHg 72%
    13:00 +3°C° 0 mm 4 mps 756 mmHg 69%
    14:00 +3°C° 0 mm 4 mps 755 mmHg 70%
    15:00 +3°C° 0 mm 4 mps 755 mmHg 71%
    16:00 +3°C° 0 mm 4 mps 754 mmHg 71%
    17:00 +1°C° 0 mm 5 mps 754 mmHg 73%
    18:00 +1°C° 0 mm 5 mps 753 mmHg 75%
    19:00 +1°C° 0 mm 5 mps 753 mmHg 78%
    20:00 +1°C° 0 mm 5 mps 752 mmHg 79%
    21:00 +1°C° 0 mm 5 mps 751 mmHg 81%
    22:00 +1°C° 0 mm 6 mps 751 mmHg 83%
    23:00 +1°C° 0 mm 6 mps 750 mmHg 83%

    Pasado mañana, 23 Octubre, Martes

    Tiempo Temperatura Precipitaciones Viento Presión Humedad
    00:00 +1°C° 0 mm 6 mps 750 mmHg 84%
    01:00 +1°C° 0 mm 6 mps 749 mmHg 84%
    02:00 +1°C° 0 mm 6 mps 749 mmHg 85%
    03:00 +1°C° 0 mm 6 mps 749 mmHg 86%
    04:00 +1°C° 0 mm 5 mps 749 mmHg 87%
    05:00 +1°C° 0 mm 5 mps 748 mmHg 88%
    06:00 0°C° 0 mm 5 mps 748 mmHg 90%
    07:00 0°C° 0 mm 5 mps 748 mmHg 91%
    08:00 +1°C° 0 mm 6 mps 747 mmHg 89%
    09:00 +2°C° 0 mm 6 mps 747 mmHg 87%
    10:00 +2°C° 0 mm 6 mps 747 mmHg 85%
    11:00 +3°C° 0 mm 6 mps 747 mmHg 85%
    12:00 +4°C° 0 mm 6 mps 746 mmHg 86%
    13:00 +5°C° 0 mm 6 mps 746 mmHg 86%
    14:00 +5°C° 0.1 mm 6 mps 746 mmHg 84%
    15:00 +5°C° 0.1 mm 6 mps 745 mmHg 82%
    16:00 +5°C° 0.1 mm 6 mps 745 mmHg 80%
    17:00 +5°C° 0.3 mm 6 mps 744 mmHg 79%
    18:00 +5°C° 0.3 mm 6 mps 744 mmHg 77%
    19:00 +5°C° 0.3 mm 6 mps 744 mmHg 75%
    20:00 +5°C° 0.4 mm 6 mps 743 mmHg 76%
    21:00 +4°C° 0.4 mm 6 mps 743 mmHg 77%
    22:00 +4°C° 0.4 mm 6 mps 743 mmHg 78%
    23:00 +4°C° 0.2 mm 6 mps 742 mmHg 80%

    24 Octubre, Miércoles

    Tiempo Temperatura Precipitaciones Viento Presión Humedad
    00:00 +4°C° 0.2 mm 6 mps 742 mmHg 83%
    01:00 +4°C° 0.2 mm 6 mps 741 mmHg 85%
    02:00 +5°C° 0.4 mm 5 mps 741 mmHg 86%
    03:00 +6°C° 0.4 mm 5 mps 741 mmHg 88%
    04:00 +6°C° 0.4 mm 5 mps 741 mmHg 90%
    05:00 +6°C° 0.1 mm 5 mps 741 mmHg 91%
    06:00 +6°C° 0.1 mm 4 mps 741 mmHg 91%
    07:00 +6°C° 0.1 mm 4 mps 741 mmHg 92%
    08:00 +7°C° 0 mm 4 mps 741 mmHg 92%
    09:00 +7°C° 0 mm 4 mps 741 mmHg 91%
    10:00 +7°C° 0 mm 4 mps 741 mmHg 90%
    11:00 +7°C° 0.1 mm 4 mps 741 mmHg 88%
    12:00 +8°C° 0.1 mm 3 mps 741 mmHg 87%
    13:00 +8°C° 0.1 mm 3 mps 741 mmHg 85%
    14:00 +8°C° 0.1 mm 3 mps 741 mmHg 86%
    15:00 +8°C° 0.1 mm 3 mps 741 mmHg 88%
    16:00 +8°C° 0.1 mm 3 mps 741 mmHg 89%
    17:00 +8°C° 0.1 mm 3 mps 742 mmHg 89%
    18:00 +8°C° 0.1 mm 3 mps 742 mmHg 90%
    19:00 +8°C° 0.1 mm 3 mps 742 mmHg 91%
    20:00 +7°C° 0 mm 3 mps 742 mmHg 91%
    21:00 +7°C° 0 mm 3 mps 742 mmHg 91%
    22:00 +7°C° 0 mm 3 mps 742 mmHg 91%
    23:00 +5°C° 0 mm 3 mps 743 mmHg 91%

    25 Octubre, Jueves

    Tiempo Temperatura Precipitaciones Viento Presión Humedad
    00:00 +5°C° 0 mm 3 mps 743 mmHg 92%
    01:00 +5°C° 0 mm 3 mps 743 mmHg 92%
    02:00 +5°C° 0 mm 3 mps 743 mmHg 93%
    03:00 +5°C° 0 mm 3 mps 743 mmHg 93%
    04:00 +5°C° 0 mm 3 mps 743 mmHg 93%
    05:00 +5°C° 0 mm 4 mps 743 mmHg 93%
    06:00 +5°C° 0 mm 4 mps 743 mmHg 93%
    07:00 +5°C° 0 mm 4 mps 742 mmHg 93%
    08:00 +6°C° 0 mm 4 mps 742 mmHg 91%
    09:00 +7°C° 0 mm 5 mps 742 mmHg 88%
    10:00 +7°C° 0 mm 5 mps 742 mmHg 86%
    11:00 +7°C° 0.7 mm 5 mps 742 mmHg 87%
    12:00 +8°C° 0.7 mm 5 mps 741 mmHg 88%
    13:00 +8°C° 0.7 mm 5 mps 741 mmHg 89%
    14:00 +8°C° 0.5 mm 5 mps 741 mmHg 87%
    15:00 +8°C° 0.5 mm 4 mps 740 mmHg 84%
    16:00 +8°C° 0.5 mm 4 mps 740 mmHg 81%
    17:00 +8°C° 0.2 mm 4 mps 740 mmHg 80%
    18:00 +8°C° 0.2 mm 4 mps 740 mmHg 78%
    19:00 +8°C° 0.2 mm 4 mps 740 mmHg 76%
    20:00 +10°C° 0 mm 4 mps 739 mmHg 73%
    21:00 +10°C° 0 mm 4 mps 739 mmHg 70%
    22:00 +9°C° 0 mm 5 mps 739 mmHg 66%
    23:00 +9°C° 0 mm 5 mps 738 mmHg 65%

    26 Octubre, Viernes

    Tiempo Temperatura Precipitaciones Viento Presión Humedad
    00:00 +10°C° 0 mm 5 mps 738 mmHg 64%
    01:00 +10°C° 0 mm 5 mps 738 mmHg 62%
    02:00 +10°C° 0 mm 5 mps 737 mmHg 63%
    03:00 +9°C° 0 mm 5 mps 737 mmHg 64%
    04:00 +9°C° 0 mm 5 mps 737 mmHg 65%
    05:00 +9°C° 1.2 mm 5 mps 737 mmHg 72%
    06:00 +8°C° 1.2 mm 5 mps 737 mmHg 78%
    07:00 +8°C° 1.2 mm 5 mps 736 mmHg 84%
    08:00 +8°C° 1 mm 5 mps 736 mmHg 85%
    09:00 +8°C° 1 mm 6 mps 735 mmHg 86%
    10:00 +8°C° 1 mm 6 mps 735 mmHg 87%
    11:00 +8°C° 1 mm 6 mps 735 mmHg 87%
    12:00 +8°C° 1 mm 6 mps 734 mmHg 87%
    13:00 +8°C° 1 mm 6 mps 734 mmHg 87%
    14:00 +8°C° 0.1 mm 5 mps 734 mmHg 85%
    15:00 +8°C° 0.1 mm 5 mps 734 mmHg 83%
    16:00 +8°C° 0.1 mm 5 mps 734 mmHg 80%
    17:00 +7°C° 0 mm 5 mps 735 mmHg 79%
    18:00 +6°C° 0 mm 5 mps 735 mmHg 77%
    19:00 +5°C° 0 mm 5 mps 736 mmHg 75%
    20:00 +5°C° 0 mm 5 mps 736 mmHg 76%
    21:00 +3°C° 0 mm 5 mps 736 mmHg 77%
    22:00 +3°C° 0 mm 5 mps 736 mmHg 79%
    23:00 +3°C° 0 mm 5 mps 737 mmHg 79%
    Mostrar más